This is the latest recevied weather packets stored in our database for station/object SQ4IXR-4. If no packets are shown the sender has not sent any weather packets the latest 10 day(s).
| Time | Temp. | Humidity | Pressure | Rain* | Wind** | Luminosity | Snow |
|---|---|---|---|---|---|---|---|
| 1777610367 | 11.67° C | 47% | 1029.1 hPa | - | - | - | - |
| 1777609543 | 11.11° C | 48% | 1029.1 hPa | - | - | - | - |
| 1777608719 | 10.56° C | 49% | 1029.1 hPa | - | - | - | - |
| 1777607894 | 10° C | 51% | 1029.3 hPa | - | - | - | - |
| 1777607069 | 8.89° C | 53% | 1029.3 hPa | - | - | - | - |
| 1777606245 | 8.89° C | 53% | 1029.3 hPa | - | - | - | - |
| 1777605421 | 8.89° C | 53% | 1029.4 hPa | - | - | - | - |
| 1777604599 | 8.89° C | 53% | 1029.5 hPa | - | - | - | - |
| 1777603775 | 8.89° C | 53% | 1029.5 hPa | - | - | - | - |
| 1777602951 | 8.33° C | 53% | 1029.6 hPa | - | - | - | - |
| 1777602128 | 8.33° C | 53% | 1029.4 hPa | - | - | - | - |
| 1777601305 | 8.33° C | 52% | 1029.5 hPa | - | - | - | - |
| 1777600482 | 8.33° C | 53% | 1029.6 hPa | - | - | - | - |
| 1777599658 | 8.33° C | 53% | 1029.7 hPa | - | - | - | - |
| 1777598836 | 8.33° C | 52% | 1029.7 hPa | - | - | - | - |
| 1777598013 | 8.89° C | 51% | 1029.6 hPa | - | - | - | - |
| 1777597190 | 8.89° C | 51% | 1029.7 hPa | - | - | - | - |
| 1777596367 | 8.89° C | 51% | 1029.7 hPa | - | - | - | - |
| 1777595544 | 8.89° C | 49% | 1029.7 hPa | - | - | - | - |
| 1777593897 | 8.89° C | 48% | 1029.8 hPa | - | - | - | - |
| 1777593075 | 9.44° C | 48% | 1030 hPa | - | - | - | - |
| 1777592250 | 9.44° C | 48% | 1029.9 hPa | - | - | - | - |
| 1777591427 | 9.44° C | 47% | 1030 hPa | - | - | - | - |
| 1777590604 | 9.44° C | 48% | 1030 hPa | - | - | - | - |
| 1777589780 | 9.44° C | 47% | 1030.1 hPa | - | - | - | - |
* Rain since midnight (hover to see other rain measurements)
** Current wind speed in m/s (hover to see current wind gust speed)